STARLINK-37499, 69250

Orbit data source: Space-Track

STARLINK-37499, 69250 is a payload satellite owned by SpaceX/Seattle (US) in LEO that was launched on Fri, 29 May 2026 UTC via an FALCON 9 launch vehicle from the Air Force Eastern Test Range (AFETR). Payload-class satellites include a variety of spacecraft equipped with specific instruments for various scientific and technological missions. These include communications satellites like Starlink; space stations such as the ISS; scientific satellites like the Hubble; Earth observation satellites from companies like Planet Labs, Umbra, and HawkEye 360; GPS; miniature CubeSats for education and research; and military/defense satellites.

Not visible in the next 10 days
Identifier
69250, 2026-177N
Orbit
LEO
Country
Flag of USUS
Related business
Manufacturer
SpaceX/Seattle
Mission
Operational spacecraft
Bus & Motor
STARLINK V2MO, Unknown motor
Mass
575 kg wet, ~530 kg dry
Launch date (UTC)
2026-05-29 (2 weeks ago)
Launch vehicle
FALCON 9
Launch site
Air Force Eastern Test Range (AFETR)
Object type
Payload
Rocket body
Debris
Shape & HBR
Unknown
Radar Cross Section
RCS unknown

Expand to show TLE details & history
Last TLE update: 6 days ago

TLE from 6 days ago
0 STARLINK-37499
1 69250U 26177N   26155.25004630 -.01911432  11470-2 -28290-2 0  9995
2 69250  53.1582 308.7447 0000453  66.4196 311.9982 16.04396377  2163
Epoch: 2026-06-04T06:00Z
TLE epoch observation values (Epoch: 2026-06-04T06:00:04.000Z)
Latitude
14.65447°
Longitude
-22.73549°
Altitude
262.256 km
Speed
7.752 km/s
True Right ascension
21h 19m 54s
True Declination
14° 33' 51"
Sunlit
Object was in daylight at epoch
Visualization orbit readout
Latitude
Unknown
Longitude
Unknown
Altitude
Unknown
Speed
Unknown
Apparent Right ascension
Unknown
Apparent Declination
Unknown
Sunlit
N/A
Visualization observer readout
Local Sidereal Time
12:45:05
Azimuth
Unknown
Elevation
Unknown
Doppler factor
Unknown
Orbital elements
Apogee altitude
262.826 km
Perigee altitude
262.224 km
Semi-major axis
6,640.662 km
Eccentricity
0.00005
Inclination
53.1582°
RAAN
308.7447°
Arg. of periapsis
66.4196°
True anomaly
311.99434°
Mean anomaly
311.9982°
Eccentric anomaly
311.99627°
Mean motion
4.01075 °/min
Orbital period
89.76 mins
BSTAR
-0.002829
Loading maneuver chart data...
Computing Atmospheric mass density...
Loading historical data...
Loading historical data...
Loading historical data...
Loading historical data...
Loading historical data...
Loading historical data...
Loading historical data...
Other satellites on launch #177 in the year 2026 (2026-05-29 UTC)

Documentation

Showing up to 5 results
|